Regional Weather Roundup
Issued by NWS

Home | Current Version | Previous Version | Text Only | Print | Product List | Glossary Off
Versions: 1 2 3 4 5 6 7 8 9 10 11 12 13 14 15 16 17 18 19 20 21 22 23 24 25 26 27 28 29 30 31 32 33 34 35 36 37 38 39 40 41 42 43 44 45 46 47 48 49 50

082
ASUS45 KPSR 211810
RWRAZ

ARIZONA HOURLY REGIONAL WEATHER ROUNDUP
NATIONAL WEATHER SERVICE PHOENIX AZ
1100 AM MST SAT JAN 21 2017

NOTE: FAIR INDICATES FEW OR NO CLOUDS BELOW 12,000 FEET WITH NO
SIGNIFICANT WEATHER AND/OR OBSTRUCTIONS TO VISIBILITY.

AZZ001>003-036-211900-
NORTHWEST ARIZONA

CITY           SKY/WX    TMP DP  RH WIND       PRES   REMARKS
BULLHEAD CITY  SUNNY     55  36  47 SE14      29.75R
KINGMAN        SUNNY     43  29  57 SW21      29.72R
6HR MIN TEMP:  37; 6HR MAX TEMP:  43; 6HR PCP:  0.01;

$$

AZZ004>008-015-016-018-211900-
NORTH CENTRAL ARIZONA

CITY           SKY/WX    TMP DP  RH WIND       PRES   REMARKS
GRAND CANYON   LGT SNOW  27  25  92 SW15G23   29.61R FOG     WCI  15
6HR MIN TEMP:  25; 6HR MAX TEMP:  27; 6HR PCP:  0.02;

WILLIAMS       LGT SNOW  27  23  86 W16G28    29.63R WCI  14
PRESCOTT       PTSUNNY   33  29  85 W17       29.70R WCI  22
6HR MIN TEMP:  31; 6HR MAX TEMP:  34; 6HR PCP:  0.15;

FLAGSTAFF      LGT SNOW  26  21  81 W12G22    29.61R WCI  16
6HR MIN TEMP:  24; 6HR MAX TEMP:  27; 6HR PCP:  0.06;

PAYSON         LGT SNOW  34  32  93 SW12G18   29.70R VSB 3/4 WCI  25
PAGE           CLOUDY    43  25  49 W9        29.51R
6HR MIN TEMP:  36; 6HR MAX TEMP:  43; 6HR PCP: TRACE;

$$

AZZ009>014-017-211900-
NORTHEAST ARIZONA

CITY           SKY/WX    TMP DP  RH WIND       PRES   REMARKS
WINSLOW        MOSUNNY   38  31  76 W16       29.61R WCI  29
6HR MIN TEMP:  32; 6HR MAX TEMP:  38; 6HR PCP:  0.02;

SAINT JOHNS    LGT SNOW  32  30  92 W16       29.60R FOG     WCI  21
6HR MIN TEMP:  30; 6HR MAX TEMP:  33; 6HR PCP: TRACE;

SHOW LOW       HVY SNOW  25  23  93 SW18G36   29.63R VSB<1/4 WCI  11
$$

AZZ023-211900-
GREATER PHOENIX AREA

CITY           SKY/WX    TMP DP  RH WIND       PRES   REMARKS
PHOENIX        MOSUNNY   55  38  52 W24G31    29.77R
6HR MIN TEMP:  50; 6HR MAX TEMP:  55;

BUCKEYE        SUNNY     54  39  58 W21G29    29.79R
GLENDALE       MOSUNNY   54  45  71 MISG      29.79R
LUKE AFB       SUNNY     55  39  55 SW17G25   29.77R
6HR MIN TEMP:  47; 6HR MAX TEMP:  55;

DEER VALLEY    MOSUNNY   52  41  66 SW17G24   29.75R
6HR MIN TEMP:  47; 6HR MAX TEMP:  53; 6HR PCP: TRACE;

SCOTTSDALE     MOSUNNY   53  39  59 SW15G23   29.78R
6HR MIN TEMP:  48; 6HR MAX TEMP:  53; 6HR PCP: TRACE;

MESA-FALCON    MOSUNNY  N/A N/A N/A SW21      29.75R
MESA-GATEWAY   MOSUNNY   54  39  58 W23G29    29.79R
CHANDLER       SUNNY     55  39  54 SW23G35   29.79R
$$

AZZ027-028-211900-
SOUTHWEST MARICOPA COUNTY AND PINAL COUNTY

CITY           SKY/WX    TMP DP  RH WIND       PRES   REMARKS
CASA GRANDE    SUNNY     53  39  59 W22G28    29.81R
6HR MIN TEMP:  49; 6HR MAX TEMP:  53; 6HR PCP: TRACE;

$$

AZZ503-504-507>509-211900-
SOUTHEAST ARIZONA

CITY           SKY/WX    TMP DP  RH WIND       PRES   REMARKS
TUCSON         PTSUNNY   52  35  52 W25G32    29.83R
6HR MIN TEMP:  49; 6HR MAX TEMP:  54;

DAVIS-MONTHAN  PTSUNNY   50  35  56 W21G31    29.82R
6HR MIN TEMP:  48; 6HR MAX TEMP:  51;

RYAN FIELD     PTSUNNY   54  37  54 W23G32    29.84R
NOGALES        CLOUDY    48  32  53 W22G32    29.84R
6HR MIN TEMP:  42; 6HR MAX TEMP:  49; 6HR PCP: TRACE;

SIERRA VISTA   MOSUNNY   44  28  52 W30G38    29.80R
6HR MIN TEMP:  39; 6HR MAX TEMP:  45; 6HR PCP:  0.01;

DOUGLAS        PTSUNNY   47  35  63 W17       29.79R
6HR MIN TEMP:  39; 6HR MAX TEMP:  47; 6HR PCP:  0.03;

SAFFORD        PTSUNNY   48  37  65 NW21G32   29.69R
6HR MIN TEMP:  40; 6HR MAX TEMP:  48; 6HR PCP:  0.03;

$$

AZZ020-021-025-026-031-211900-
SOUTHWEST ARIZONA

CITY           SKY/WX    TMP DP  RH WIND       PRES   REMARKS
YUMA           SUNNY     59  40  49 W13       29.86R
6HR MIN TEMP:  49; 6HR MAX TEMP:  59;

$$

CAZ031-033-041-043-047-048-061-211900-
SOUTHERN CALIFORNIA

CITY           SKY/WX    TMP DP  RH WIND       PRES   REMARKS
DOWNTOWN L.A.  SUNNY     58  43  57 W3        29.90R
6HR MIN TEMP:  46; 6HR MAX TEMP:  58;

L.A. AIRPORT   MOSUNNY   57  45  64 W17       29.91R
6HR MIN TEMP:  48; 6HR MAX TEMP:  57;

SAN DIEGO      PTSUNNY   59  42  53 NW10      29.97R
6HR MIN TEMP:  54; 6HR MAX TEMP:  60;

BURBANK        SUNNY     52  36  54 W9        29.90R
6HR MIN TEMP:  41; 6HR MAX TEMP:  52;

ONTARIO        MOSUNNY   50  41  71 CALM      29.90R
6HR MIN TEMP:  39; 6HR MAX TEMP:  50;

RIVERSIDE      PTSUNNY   50  43  77 CALM      29.91R
6HR MIN TEMP:  45; 6HR MAX TEMP:  51;

PALM SPRINGS   SUNNY     59  35  40 W7        29.83R
6HR MIN TEMP:  51; 6HR MAX TEMP:  59;

EL CENTRO NAS  SUNNY     59  42  53 W21       29.89R
6HR MIN TEMP:  49; 6HR MAX TEMP:  59; 6HR PCP: TRACE;

IMPERIAL         N/A    N/A N/A N/A MISG      29.85R
6HR MIN TEMP:  48; 6HR MAX TEMP:  57;

BLYTHE         SUNNY     57  39  51 W15       29.80R
6HR MIN TEMP:  48; 6HR MAX TEMP:  57;

NEEDLES        SUNNY     57  32  38 W7        29.76R
6HR MIN TEMP:  50; 6HR MAX TEMP:  57;

$$

NVZ020-UTZ003-211900-
SOUTHERN NEVADA-UTAH

CITY           SKY/WX    TMP DP  RH WIND       PRES   REMARKS
LAS VEGAS      MOSUNNY   50  30  46 S8        29.70R
6HR MIN TEMP:  43; 6HR MAX TEMP:  50;

SALT LAKE CITY SNOW      32  31  96 W13       29.53R VSB 1/2 WCI  22
6HR MIN TEMP:  31; 6HR MAX TEMP:  33; 6HR PCP:  0.43;

$$

NMZ009-TXZ055-211900-
NEW MEXICO-WEST TEXAS

CITY           SKY/WX    TMP DP  RH WIND       PRES   REMARKS
ALBUQUERQUE    PTSUNNY   40  29  64 SW15      29.52S WCI  32
6HR MIN TEMP:  32; 6HR MAX TEMP:  40; 6HR PCP:  0.03;

EL PASO        PTSUNNY   47  34  60 W26G36    29.66S
6HR MIN TEMP:  42; 6HR MAX TEMP:  49; 6HR PCP:  0.21;

$$


........................KEY........................
SKY/WX - SKY CONDITION/WEATHER
TMP    - TEMPERATURE IN FAHRENHEIT
DP     - DEW POINT IN FAHRENHEIT
RH     - RELATIVE HUMIDITY IN PERCENT
WIND   - DIRECTION AND SPEED IN MILES PER HOUR (MPH)
VRB    - VARIABLE WIND DIRECTION
PRES   - MEAN SEA LEVEL PRESSURE IN INCHES OF MERCURY
         F - FALLING PRESSURE   R - RISING PRESSURE
         S - STEADY PRESSURE
VSB    - VISIBILITY IN MILES
HX     - HEAT INDEX IN FAHRENHEIT
WCI    - WIND CHILL INDEX IN FAHRENHEIT
TC     - TEMPERATURE IN CELSIUS WHICH IS ALSO KNOWN AS
         TEMPERATURE IN CENTIGRADE
AFB    - AIR FORCE BASE
         LUKE AFB IS LUKE AIR FORCE BASE
         DAVIS-MONTHAN IS DAVIS-MONTHAN AIR FORCE BASE
NAS    - NAVAL AIR STATION
         EL CENTRO NAS IS EL CENTRO NAVAL AIR STATION
N/A    - NOT AVAILABLE





USA.gov is the U.S. government's official web portal to all federal, state and local government web resources and services.